Theta_e
306 306 306 306 306 306 307 307 307 307 307 307 307 307 307 307 307 307 307 307 307 307 307 308 308 307 308 308 307 307 305 307 311 313 313 313 313 312 310 308 305 305 307 314 320 316 314 317 320 318 318 318 316 316 316 316 317 316 317 316 313 314 315 317 317 317 318 320 319 319 320 323 327 328 329 332 333 334 333 337 339 338 339 343 342 342 350 353
306 306 305 305 306 306 306 306 306 306 306 307 307 306 307 307 307 307 307 307 307 307 307 308 308 307 308 307 307 306 305 310 312 312 312 311 310 309 307 306 304 304 307 316 320 314 314 317 318 318 317 316 316 316 316 316 316 316 317 315 314 317 318 318 318 319 320 319 319 320 319 322 328 329 329 331 333 335 334 335 338 339 337 341 345 345 351 353
305 306 305 305 306 306 306 306 305 305 305 306 306 306 306 306 306 307 307 307 307 308 307 307 307 307 307 307 306 304 307 312 312 312 313 311 309 308 306 304 304 303 307 315 317 313 314 316 318 318 316 316 316 315 315 315 316 316 316 315 316 318 319 318 318 319 319 319 319 319 318 321 326 327 327 331 333 332 333 334 335 337 336 339 344 348 351 352
305 305 306 305 305 305 305 305 305 305 305 305 305 306 306 306 306 307 307 306 307 307 307 307 307 307 307 307 305 304 310 312 311 312 312 311 308 307 306 304 304 303 307 314 316 314 315 316 318 317 315 316 316 316 315 315 316 315 315 316 317 318 318 317 317 318 319 319 319 319 319 320 322 323 326 330 332 331 332 332 333 335 336 339 342 347 351 351
305 305 305 305 305 305 305 304 305 305 305 305 304 305 306 306 306 307 307 306 306 307 307 307 307 306 307 307 304 306 311 309 311 315 309 307 306 306 306 305 304 304 309 312 315 316 315 316 317 316 315 315 315 316 315 316 316 316 315 316 318 318 317 317 317 317 318 318 318 319 318 319 320 322 326 329 330 330 332 330 334 337 339 340 342 348 350 348
304 305 305 305 305 305 305 304 304 304 305 305 305 306 306 306 306 306 307 306 306 307 307 307 307 306 307 305 304 308 311 308 313 314 308 306 305 305 305 305 304 306 309 311 313 315 315 315 315 315 314 314 315 315 315 315 316 316 316 317 317 318 317 317 317 317 318 317 318 318 318 319 319 322 326 328 327 328 330 331 333 335 339 340 342 349 348 346
304 305 305 305 305 304 305 305 305 304 304 306 306 305 305 305 306 306 307 306 306 306 306 307 306 306 306 305 306 310 310 309 313 312 309 307 307 307 306 305 305 307 310 310 312 313 313 315 314 315 314 314 315 315 316 315 315 316 316 317 317 316 316 316 317 317 317 318 318 318 318 318 318 322 326 326 326 327 329 331 332 334 338 339 343 348 346 346
304 304 304 304 304 304 304 304 305 304 304 305 306 305 305 305 306 306 306 306 306 305 305 306 306 306 306 306 310 310 307 308 310 309 309 308 311 313 310 309 308 308 310 310 311 312 313 314 314 314 314 314 314 315 316 315 314 315 315 317 317 316 316 316 317 317 317 318 318 318 317 318 317 320 325 323 324 326 327 330 332 336 339 339 343 347 346 346
304 304 304 304 304 304 304 304 304 304 304 304 305 305 305 305 305 305 305 306 306 305 305 306 306 306 305 308 310 309 308 308 308 307 308 310 314 317 314 314 312 309 310 311 310 312 312 313 314 314 314 314 314 314 315 314 314 315 314 315 316 316 316 316 317 317 317 317 317 318 317 318 318 319 322 322 325 326 328 331 332 336 337 337 342 344 345 347
304 304 304 304 304 304 304 304 304 304 304 304 305 305 305 305 305 305 305 305 305 305 305 306 306 306 306 309 309 308 308 307 308 308 311 313 313 316 316 315 314 311 311 311 311 312 312 313 314 315 314 314 314 314 314 314 314 316 315 315 315 316 315 316 316 316 317 317 317 317 317 318 317 318 320 322 325 326 329 333 332 334 335 337 341 343 346 348
304 304 304 304 303 303 304 304 304 304 304 304 305 305 305 305 305 304 304 305 305 305 305 306 306 305 307 309 309 309 307 306 310 312 314 314 312 315 316 314 314 312 312 311 311 312 312 314 315 314 314 313 314 313 314 314 315 317 316 315 314 315 316 315 316 317 317 317 318 318 317 318 317 317 320 322 324 326 331 334 333 333 334 338 341 343 346 347
303 303 304 303 303 303 304 304 304 304 305 305 304 304 304 304 304 304 304 305 305 305 305 305 305 305 308 309 308 309 308 308 311 312 313 314 314 316 316 316 315 313 312 312 311 312 313 314 314 314 313 313 313 313 314 315 315 316 316 315 314 314 315 316 316 317 318 318 318 318 316 316 317 318 320 323 324 326 331 334 334 334 334 337 341 343 345 346
303 303 303 303 303 303 303 303 304 304 304 304 304 304 304 304 304 304 304 304 304 305 305 305 305 306 307 307 308 309 308 308 309 309 310 311 315 316 316 316 315 313 312 311 311 312 312 314 314 313 313 313 312 313 314 314 315 315 315 315 314 313 313 316 317 317 317 318 318 317 312 313 317 321 324 324 325 327 330 334 336 334 335 338 341 342 344 345
303 303 303 303 303 303 303 304 304 304 304 304 304 304 304 304 303 303 303 303 304 304 304 304 305 306 307 307 308 307 307 307 307 306 307 309 312 314 315 315 314 314 312 312 312 312 312 313 314 313 313 313 313 314 314 314 314 314 314 314 314 311 311 316 316 316 318 317 318 317 310 313 318 323 325 323 325 326 328 333 336 336 335 337 341 342 343 345
303 303 303 303 302 302 303 304 304 304 303 303 303 303 303 302 302 303 303 303 304 304 304 304 304 306 307 308 309 308 307 307 307 306 306 307 310 311 313 314 314 314 312 312 313 313 313 313 313 313 313 313 313 314 314 313 314 314 312 311 312 311 312 316 316 316 318 317 318 315 311 314 319 321 322 323 325 325 327 331 337 338 335 336 341 342 342 344
302 302 303 303 302 302 303 303 304 304 303 303 303 302 301 301 302 302 302 302 303 304 304 305 306 307 307 308 309 309 308 308 307 306 306 306 308 309 310 313 314 314 313 313 314 314 313 313 313 312 312 312 313 315 314 312 312 313 312 309 310 311 311 314 315 317 317 317 317 315 315 318 321 320 320 324 324 325 328 330 337 339 336 338 341 342 343 344
301 301 302 302 301 302 303 303 303 303 303 302 302 301 301 301 302 302 302 302 303 304 304 306 307 307 307 308 307 307 308 308 307 307 306 306 307 308 309 313 314 314 314 314 314 314 314 313 312 311 312 312 313 315 312 309 309 311 311 310 310 311 311 311 314 317 317 317 317 315 318 322 323 322 321 324 324 325 329 331 334 336 335 337 340 341 342 343
301 301 301 301 302 302 303 303 303 302 302 302 301 301 301 302 302 303 304 303 304 305 305 306 307 307 308 308 307 308 309 308 308 307 307 306 306 307 310 313 314 313 313 313 314 314 312 312 311 311 312 312 313 314 310 309 311 310 309 309 310 310 311 311 313 316 317 317 317 315 319 323 324 324 323 323 323 324 329 330 330 332 333 334 337 338 339 340
301 301 301 301 302 303 302 302 302 302 302 301 301 302 303 304 305 306 306 305 305 305 306 306 306 307 308 308 307 308 309 309 309 308 308 307 306 308 312 315 313 312 313 312 313 312 311 311 311 311 312 312 314 313 312 312 313 313 311 311 310 309 311 315 315 316 317 316 316 316 319 324 324 324 325 324 324 325 329 330 328 330 332 333 336 337 337 339
301 301 301 302 302 302 302 302 302 302 302 301 302 304 305 306 307 307 306 306 305 306 306 306 307 306 305 308 308 308 309 309 309 309 308 307 307 308 312 314 313 312 312 312 313 312 311 311 311 311 312 313 314 315 314 314 315 316 314 312 312 310 310 316 317 316 318 316 316 317 320 325 326 325 326 327 329 329 331 331 329 330 331 332 335 337 339 340
301 301 302 301 302 302 302 302 301 301 301 301 302 304 304 306 307 307 307 306 306 306 305 305 307 307 306 308 309 309 308 308 309 309 309 308 307 308 311 314 313 312 313 313 312 312 312 311 311 312 313 313 315 316 315 315 316 316 314 312 312 311 311 316 317 316 317 316 315 317 321 326 328 327 327 327 329 330 331 332 331 330 331 332 337 340 341 341
300 301 301 301 301 302 302 301 302 301 301 301 302 303 304 305 306 306 307 307 307 307 306 305 306 307 308 308 309 309 308 307 307 308 309 308 307 308 311 313 313 313 313 313 312 312 312 311 312 313 314 314 315 316 316 316 317 316 314 311 310 312 313 315 317 317 317 316 315 318 323 326 328 328 328 328 330 332 333 334 334 333 334 336 340 342 343 342
300 300 300 301 301 302 302 301 301 301 301 302 303 304 305 305 305 306 306 306 306 306 307 307 305 305 306 307 308 307 307 307 307 308 309 308 307 308 311 313 314 313 312 313 313 311 311 312 312 313 314 314 315 315 316 316 316 316 314 310 309 312 312 311 314 317 316 316 317 319 323 327 329 329 330 331 332 333 333 334 335 334 336 337 339 340 341 342
300 300 300 300 301 301 302 301 300 301 301 302 303 304 304 304 305 305 305 305 306 306 307 308 307 305 304 306 307 306 306 307 307 309 310 308 307 308 312 313 313 314 313 313 313 312 312 312 312 313 313 313 314 315 316 316 315 316 315 312 310 312 313 312 314 316 316 317 320 320 320 324 327 328 330 331 332 333 333 334 335 334 336 336 337 338 339 340
300 300 300 300 301 302 301 300 301 302 303 304 304 304 304 304 305 305 306 307 307 308 307 307 308 307 306 306 306 305 305 306 307 309 311 309 308 309 312 314 313 314 314 313 313 313 313 313 312 312 313 313 314 314 315 315 314 313 315 314 313 314 315 315 316 315 312 313 317 319 317 319 322 324 328 331 331 333 333 334 334 334 335 335 337 339 339 339
299 300 300 300 301 301 300 301 303 303 303 304 304 304 304 304 306 305 307 309 308 308 308 307 308 308 307 306 305 305 305 305 307 309 311 310 309 310 312 313 314 314 314 313 313 313 313 313 312 312 313 313 314 314 314 317 313 310 313 315 315 316 315 314 315 312 309 310 317 319 316 316 320 323 328 330 330 333 333 334 335 334 335 335 337 338 337 337
299 300 299 299 300 300 300 302 303 303 303 304 304 305 305 305 306 306 308 309 309 309 309 307 308 308 307 307 306 305 304 305 306 308 311 310 309 310 311 313 314 314 315 314 312 313 314 313 311 312 312 312 313 314 315 317 312 310 314 316 315 315 315 315 315 312 311 313 317 319 316 316 320 324 329 330 330 333 333 334 336 335 336 336 335 334 334 334
299 300 299 299 300 300 301 302 302 303 303 304 304 305 305 306 305 307 310 311 310 308 309 308 308 308 307 308 307 305 306 306 305 307 311 310 309 309 311 313 314 314 314 313 312 313 314 313 312 312 312 313 315 315 316 315 312 313 315 315 315 316 316 316 314 312 314 314 313 316 314 314 319 325 328 330 329 331 334 335 337 336 335 334 333 332 331 330
299 300 300 300 299 299 300 301 301 302 302 303 303 304 305 305 306 307 310 311 311 308 309 309 308 308 308 308 307 306 306 307 306 307 310 310 309 309 311 313 313 314 314 313 313 313 313 314 313 313 314 315 316 315 314 313 313 315 316 315 315 316 316 317 316 312 312 313 311 314 313 312 321 327 326 328 328 330 335 336 336 334 332 331 330 330 329 328
299 299 299 300 299 300 301 302 302 302 302 302 303 304 305 305 307 309 310 312 312 310 308 308 308 308 308 308 307 306 305 307 307 307 309 309 309 310 311 314 313 313 314 314 313 313 313 314 314 315 315 315 314 313 314 313 314 315 315 315 314 315 316 315 315 312 311 312 311 314 313 312 322 328 324 326 329 329 333 335 335 332 330 329 329 328 327 326
299 299 299 299 300 300 301 302 303 302 301 302 303 304 305 307 309 309 311 311 311 311 308 308 308 307 308 308 307 306 304 307 308 307 308 309 309 311 312 313 314 313 313 313 312 313 314 314 314 315 314 314 313 313 314 314 314 315 315 314 311 311 313 311 312 311 311 312 311 314 314 310 317 326 326 328 331 330 331 333 334 332 329 328 327 326 325 324
299 299 299 299 299 300 301 302 303 303 302 303 304 305 307 309 310 309 311 309 309 312 311 309 308 307 308 308 306 306 305 308 309 307 308 309 309 311 312 313 313 313 312 312 312 312 314 314 314 314 314 314 313 312 313 313 314 315 314 312 309 309 311 311 310 310 310 311 311 313 314 309 313 323 328 331 332 330 330 331 332 330 328 326 325 323 323 322
298 298 298 299 300 300 301 302 302 302 303 303 304 305 308 310 311 309 309 309 311 313 312 311 311 308 308 308 307 305 306 308 309 308 309 308 309 310 312 313 313 313 313 312 311 310 312 314 313 314 313 313 314 311 311 312 312 314 312 310 309 309 312 313 311 311 311 310 311 314 312 310 318 328 332 334 332 331 331 329 329 327 325 324 323 322 322 322
298 298 299 299 300 300 301 301 301 302 302 303 304 307 309 311 311 309 309 310 312 312 311 312 312 310 307 308 308 306 306 309 309 310 309 308 309 311 311 312 312 314 314 313 311 310 312 314 313 313 313 312 314 312 312 313 312 313 314 312 310 308 311 312 310 311 311 310 312 312 311 316 327 334 333 333 330 329 328 326 326 325 323 323 322 321 322 322
297 298 299 300 301 301 301 301 301 301 302 303 305 308 310 311 310 309 310 312 313 312 310 311 313 311 308 307 308 306 306 310 310 310 310 309 309 311 311 312 313 314 314 312 312 310 311 313 314 314 313 313 313 313 314 314 311 314 314 312 310 310 311 310 312 313 311 312 313 313 321 327 331 334 331 330 329 327 327 326 325 324 323 322 322 321 321 321
298 299 301 301 302 302 301 301 301 301 302 304 306 308 309 309 309 310 312 313 313 312 310 312 313 312 310 307 308 307 306 310 311 310 310 309 310 311 310 312 313 314 314 313 312 311 311 312 314 314 314 313 314 315 315 313 312 313 311 310 312 314 314 310 312 315 312 314 314 316 331 335 333 335 333 329 330 328 327 326 325 324 323 322 322 321 321 320
299 301 302 302 302 302 302 302 301 301 302 304 307 308 308 308 308 309 311 312 312 311 311 313 313 312 311 308 307 307 306 309 311 310 310 310 310 311 311 312 313 313 314 313 312 313 312 312 314 314 314 314 314 315 314 313 313 312 309 311 314 315 316 311 311 314 312 315 315 316 332 336 333 336 334 329 331 329 327 327 326 325 323 323 322 321 320 319
300 301 302 303 303 303 303 302 302 302 303 305 307 308 307 308 308 309 311 311 311 311 311 313 313 312 312 308 307 307 306 309 311 310 310 309 310 311 311 312 312 312 313 313 313 314 313 311 313 314 314 314 314 314 314 314 314 313 312 314 314 311 312 311 311 314 313 316 317 317 326 331 328 332 333 331 331 329 327 327 325 324 323 322 322 321 320 319
300 301 303 304 304 305 303 302 302 302 303 306 307 308 308 308 308 308 309 309 309 309 310 313 314 313 312 309 307 307 307 310 311 310 310 310 311 311 311 312 312 312 313 313 313 314 314 313 312 314 313 313 313 312 312 312 312 315 313 314 315 312 310 311 311 313 313 314 318 318 319 322 323 329 333 331 330 329 327 327 325 323 322 321 320 320 319 318
301 302 305 306 306 305 304 302 303 303 304 305 306 307 307 307 307 308 308 308 309 309 310 314 314 313 313 312 310 307 308 310 311 310 310 310 311 311 311 312 312 313 314 313 314 314 314 314 312 313 313 312 313 311 311 312 311 312 312 310 313 312 313 313 311 312 312 311 316 318 317 320 326 331 332 330 330 329 327 327 324 322 321 320 319 318 318 318
302 304 307 307 306 305 303 302 303 303 304 304 305 306 306 307 307 307 308 308 308 309 310 312 312 312 313 313 313 309 309 311 311 311 310 310 311 312 312 313 313 312 314 313 314 314 313 314 313 313 311 310 311 312 313 314 313 312 311 310 312 312 311 312 312 312 311 310 314 315 319 327 332 332 331 329 329 328 326 325 322 321 319 318 318 318 317 317
303 305 307 306 306 305 303 303 303 303 303 304 305 305 306 307 306 307 307 307 307 308 309 310 311 312 313 313 313 312 312 314 312 311 311 311 312 313 311 313 313 313 314 313 313 315 314 314 314 312 311 311 313 313 313 313 314 313 313 313 314 313 312 311 311 312 310 310 311 311 321 333 333 331 331 329 327 327 325 323 321 319 318 317 317 317 316 316
304 306 305 305 306 305 303 303 303 303 304 304 305 305 306 306 306 306 306 306 308 308 309 310 311 312 313 313 314 313 314 316 313 311 312 312 313 313 312 312 313 312 313 313 313 315 315 314 313 311 311 311 312 312 313 314 314 313 312 314 313 313 313 312 313 313 311 311 310 310 324 335 331 330 332 328 327 326 324 322 320 318 318 317 316 316 315 315
305 306 306 305 305 304 304 304 302 302 304 305 305 305 306 305 306 306 305 305 308 309 310 311 312 312 313 312 313 314 314 316 314 314 313 312 315 316 312 312 313 312 312 313 313 314 314 314 313 312 311 312 314 313 312 314 314 312 312 313 313 314 316 314 314 314 311 312 311 311 325 334 329 330 331 327 326 325 322 321 319 318 317 316 315 315 314 314
304 306 306 305 304 305 306 306 304 305 305 305 306 306 306 305 305 305 305 305 306 307 310 312 312 312 312 312 312 313 314 314 316 315 315 315 318 317 312 312 313 311 312 316 316 314 314 314 314 313 312 313 316 315 312 313 314 313 313 312 313 314 314 313 313 311 311 313 310 313 328 333 328 328 329 326 325 323 321 319 318 317 316 315 314 314 313 313
304 306 305 304 304 305 306 306 307 308 307 306 306 307 306 305 305 304 304 305 306 306 308 310 311 312 313 312 312 314 314 313 315 315 316 318 319 315 313 313 312 313 319 322 320 314 314 319 321 319 315 312 314 314 313 314 313 312 312 312 313 314 315 315 311 309 313 313 309 318 332 332 328 327 326 324 323 321 320 318 317 316 315 314 314 313 313 313
305 306 306 305 305 305 305 305 307 308 307 306 307 307 305 304 306 306 306 306 307 307 308 309 310 312 313 314 314 315 315 315 315 316 317 320 319 316 316 313 311 320 323 320 316 314 317 321 325 325 321 316 314 314 314 315 313 312 313 312 313 314 315 315 311 312 315 311 313 326 332 330 328 326 323 322 320 319 318 317 316 315 314 313 313 312 312 313
305 306 307 307 307 305 305 305 305 306 307 307 307 307 307 305 306 307 308 309 309 309 310 311 311 311 312 313 314 315 316 315 316 316 317 319 319 317 317 314 313 320 320 315 314 316 318 321 324 324 322 320 319 317 316 314 313 314 314 314 315 315 316 314 312 317 318 314 320 331 332 329 327 323 320 320 319 317 316 315 315 314 313 313 312 312 312 312
306 306 307 308 308 308 307 305 306 307 307 308 307 308 309 309 308 309 310 311 311 310 311 312 313 312 312 312 314 317 318 315 316 317 317 319 320 319 318 316 315 317 316 314 316 317 320 323 324 322 321 321 320 319 318 316 314 315 315 316 317 316 315 317 320 323 324 324 328 331 329 327 324 320 318 318 316 315 314 313 313 313 312 312 312 312 312 312
305 306 307 308 308 309 309 308 307 307 308 308 308 309 310 311 312 313 312 312 313 312 311 312 313 314 313 312 314 318 318 317 319 320 319 320 321 321 319 317 316 315 314 315 318 321 322 323 325 323 321 323 323 321 322 320 317 316 316 318 321 320 319 323 328 330 330 331 330 327 324 322 319 316 315 313 312 312 311 311 312 312 311 311 311 312 312 312
304 304 305 307 309 309 310 309 307 307 308 308 309 311 312 313 313 314 313 312 312 314 313 313 314 315 315 314 316 318 318 318 319 320 320 320 320 319 319 317 315 315 315 317 321 322 320 322 326 324 322 325 325 321 322 322 321 323 323 324 325 326 327 328 330 331 332 331 327 324 322 318 314 313 312 311 311 311 311 310 310 310 310 310 310 311 311 310
303 304 305 307 309 310 309 309 308 309 310 310 310 312 314 313 312 312 312 312 311 313 314 314 317 318 318 318 319 318 318 318 318 319 321 321 320 319 318 315 315 316 317 319 320 319 319 323 325 322 321 325 326 323 324 323 323 325 325 325 326 327 329 329 329 329 329 328 326 324 321 315 312 312 311 311 311 310 310 309 308 309 309 309 309 310 309 308
Wind_Speed
10 10 11 11 11 11 11 11 12 12 12 12 11 11 12 12 11 11 12 12 12 13 12 13 14 15 15 17 18 18 18 19 20 17 18 18 13 13 14 8 6 11 9 7 11 13 14 15 15 15 12 9 8 8 9 8 7 5 6 7 7 8 6 4 5 4 3 8 5 6 3 5 8 10 6 8 7 9 9 7 7 7 10 13 14 18 20 20
10 10 10 10 11 11 11 11 12 12 12 12 12 12 11 12 12 12 12 12 12 13 12 13 13 15 15 16 18 16 17 20 20 20 23 21 17 16 16 13 8 9 12 11 13 15 14 13 15 15 11 8 8 8 8 8 8 6 6 6 7 7 4 2 1 1 4 5 3 5 3 3 4 7 8 11 10 10 10 10 10 10 13 13 15 17 19 19
10 10 10 10 10 11 11 12 12 13 13 13 13 13 12 12 12 12 13 12 12 12 12 13 13 15 15 16 16 13 17 19 18 19 16 13 19 20 18 16 13 10 13 14 13 16 14 13 15 13 11 8 8 8 7 8 8 8 8 6 8 8 4 1 2 3 4 2 1 3 3 3 3 3 7 11 11 13 11 11 12 11 12 11 13 15 17 18
10 10 10 10 10 11 12 13 14 14 14 14 13 13 13 12 12 13 12 12 13 12 13 13 14 15 15 16 13 12 15 16 13 9 5 9 10 14 16 18 18 14 14 14 12 15 14 13 13 12 11 9 8 9 8 8 7 8 8 8 8 5 5 4 5 3 3 2 2 1 4 6 5 4 7 9 10 12 10 11 11 13 14 13 14 14 16 16
10 10 10 10 10 12 13 14 14 14 13 13 13 12 12 13 12 12 12 12 12 12 13 13 14 14 16 15 11 11 12 8 0 8 13 11 7 5 8 14 20 18 15 15 13 15 15 13 12 12 11 9 10 9 9 10 8 8 9 12 9 2 4 4 6 4 3 2 2 2 3 3 4 7 9 8 8 6 7 9 9 14 12 12 13 14 15 14
11 10 9 10 11 13 13 14 14 13 13 12 13 12 12 13 12 13 12 12 12 12 12 12 13 14 16 14 12 11 10 4 7 12 9 8 7 2 2 4 16 19 17 16 15 15 14 14 12 12 10 10 12 10 10 11 10 9 8 13 12 6 6 3 6 5 3 5 4 3 0 1 5 8 7 2 3 3 6 10 13 14 11 12 14 13 13 12
11 10 10 11 12 13 13 14 14 14 13 12 12 12 13 13 12 13 12 12 12 13 12 12 13 14 15 14 12 11 11 10 1 7 3 4 1 7 3 1 10 18 18 18 17 15 14 15 14 12 11 11 12 11 11 12 13 11 8 11 12 10 8 4 4 6 6 6 3 3 1 6 7 7 7 2 7 7 7 12 15 13 12 14 14 13 12 11
11 11 11 12 13 13 14 14 14 13 14 12 12 12 13 12 12 13 12 12 12 13 13 12 12 12 14 13 10 10 11 17 14 5 1 6 6 8 4 4 11 18 20 21 19 16 15 16 16 13 12 11 11 11 12 12 13 13 12 9 9 11 10 7 6 7 8 6 4 4 5 7 4 6 10 6 8 8 8 12 14 10 11 12 13 13 11 11
11 11 12 13 13 14 15 15 14 13 14 13 12 12 13 13 12 12 12 12 12 12 12 12 12 11 12 11 9 9 10 16 18 9 4 5 6 6 6 9 14 18 20 22 21 19 15 14 16 15 13 12 12 12 12 11 10 12 15 11 8 9 10 9 9 9 9 6 6 7 8 6 3 6 9 8 7 8 10 13 11 9 12 12 12 12 10 10
12 11 12 13 14 15 14 15 14 13 13 13 13 12 12 12 12 13 13 12 12 11 11 11 11 11 12 11 10 9 7 9 11 9 6 6 7 9 11 12 15 17 19 21 22 20 16 14 16 14 13 12 11 12 12 12 8 9 14 14 11 10 9 9 10 12 10 8 8 9 9 8 8 9 6 9 8 8 11 12 11 12 12 12 12 11 10 9
12 12 13 14 15 15 15 14 14 13 12 13 13 13 12 12 12 14 13 12 11 11 10 11 10 10 12 11 11 7 2 4 6 5 4 5 9 12 14 13 14 17 18 20 22 22 20 18 15 11 10 9 10 12 12 13 9 6 9 13 14 12 9 10 11 12 10 10 10 10 9 10 11 11 7 11 10 9 11 12 13 12 11 12 12 11 9 8
13 13 14 15 16 15 14 13 13 12 12 12 13 13 12 12 12 12 13 11 11 10 9 10 8 9 12 11 12 13 7 4 4 4 3 5 8 11 12 12 14 16 18 18 21 23 22 20 17 13 10 7 9 10 9 14 12 8 8 10 14 14 11 12 13 12 11 10 13 12 9 10 12 10 10 13 10 10 12 11 11 11 10 11 11 10 8 8
13 13 14 16 16 15 13 13 12 12 12 12 13 13 13 12 12 11 12 12 11 10 10 9 8 10 12 9 12 21 20 15 11 9 9 8 8 9 11 11 13 16 17 18 20 22 22 20 18 16 11 8 9 4 4 12 13 10 10 9 11 12 12 15 14 14 14 11 14 13 8 10 14 11 13 10 9 10 11 10 10 10 10 9 9 9 9 8
14 14 15 16 15 14 13 12 12 11 12 13 13 14 14 14 13 12 12 13 12 10 10 9 9 11 11 10 17 24 24 21 19 18 16 13 11 10 10 11 13 15 17 19 19 20 21 19 15 13 11 11 10 4 3 10 11 11 11 9 9 9 11 16 17 17 17 11 13 14 8 10 14 14 12 9 9 10 11 11 10 10 10 9 9 9 9 8
14 15 15 16 15 14 13 12 12 11 12 13 13 14 15 17 17 15 14 13 12 10 9 9 9 11 9 11 18 21 20 20 20 21 20 18 16 13 12 11 13 15 16 17 16 17 19 16 11 10 10 13 12 7 8 9 9 10 10 9 9 8 9 17 19 19 17 12 15 16 9 8 13 14 13 11 10 11 11 11 9 9 10 9 8 9 8 7
15 15 15 15 14 13 12 12 12 12 13 14 15 17 18 19 19 18 16 13 13 11 9 9 11 11 8 8 8 9 16 21 23 23 21 21 19 16 14 12 12 14 15 15 14 13 14 12 10 11 11 13 12 8 9 9 9 10 10 9 10 11 9 15 19 19 19 14 16 20 9 7 10 13 14 13 12 11 9 11 11 10 10 9 8 8 8 7
15 15 16 15 14 12 12 12 12 13 14 15 17 19 18 17 16 17 16 13 11 10 11 11 10 9 9 11 8 8 15 19 21 22 22 22 20 18 15 12 12 15 14 15 13 11 12 10 9 10 10 11 11 9 10 10 9 10 10 9 11 14 11 13 17 18 21 16 16 22 10 8 8 11 13 12 12 11 10 11 11 10 9 9 7 8 8 7
15 16 16 15 13 12 12 13 13 13 14 16 18 17 14 12 11 11 9 10 10 8 10 11 8 7 9 14 15 13 16 20 19 18 20 22 21 19 16 13 13 16 15 13 13 13 12 10 9 10 10 11 12 12 11 11 11 11 11 10 10 14 12 14 16 17 21 17 16 21 11 10 10 9 10 12 12 12 11 10 10 10 10 9 9 8 8 8
15 15 15 15 12 11 13 12 12 13 14 16 17 15 12 8 8 10 10 12 11 8 8 9 12 8 4 9 19 14 8 14 17 16 19 22 21 19 17 15 14 17 15 11 13 15 11 9 10 11 11 13 15 15 13 12 13 13 14 12 11 13 11 13 16 18 20 16 15 20 12 12 11 10 10 10 9 9 10 10 9 10 10 9 9 8 8 8
15 14 14 14 11 11 12 12 13 12 13 14 15 13 9 7 7 9 11 13 13 13 11 10 17 16 11 3 10 12 5 8 13 15 19 22 21 19 16 15 15 15 14 13 14 15 12 11 12 13 14 17 17 18 18 15 14 14 15 14 12 12 11 13 16 20 20 14 14 19 13 12 11 11 11 8 7 7 9 10 9 11 11 10 10 8 9 9
15 14 14 13 11 11 12 13 13 12 12 12 12 9 7 6 4 2 6 12 17 20 20 16 15 19 19 9 2 5 6 8 13 15 19 22 22 18 15 16 16 13 15 16 14 13 13 13 15 18 18 18 18 18 20 17 13 12 14 13 11 11 11 11 15 20 20 13 14 18 13 12 11 10 11 9 8 7 8 9 9 11 11 9 9 9 9 9
15 14 14 13 11 11 12 13 12 13 13 12 12 11 10 10 7 5 5 8 15 22 23 22 19 17 19 19 9 4 7 11 16 16 20 23 21 17 15 16 16 14 16 17 13 12 13 14 18 20 17 17 18 18 20 18 13 9 11 12 10 11 10 9 12 18 18 11 13 18 14 10 10 10 10 10 9 6 6 6 6 8 10 8 8 8 8 8
15 15 15 13 11 11 12 12 13 14 14 13 14 13 13 11 8 8 8 8 11 17 20 20 21 19 18 20 15 10 10 12 14 16 21 22 19 17 16 17 17 16 17 18 15 13 12 14 18 19 18 19 18 18 19 15 11 9 11 11 9 13 13 9 12 17 17 11 10 16 13 8 10 9 9 10 10 9 8 8 6 6 8 8 8 7 6 7
16 16 16 13 11 12 12 14 16 17 16 15 17 16 14 10 8 9 8 8 10 13 17 20 19 18 19 19 16 15 12 11 12 15 22 21 18 16 16 17 18 16 17 20 20 15 13 14 18 19 19 20 18 18 19 12 9 12 13 12 10 16 15 10 12 16 15 12 11 14 10 6 9 10 9 9 11 11 10 10 9 8 8 8 8 8 6 7
15 15 16 13 10 10 12 16 17 15 13 13 15 14 12 10 6 7 7 6 9 10 16 20 16 16 21 20 16 15 13 12 14 13 21 22 19 16 14 14 14 15 19 23 20 14 14 15 18 20 19 20 18 17 19 13 9 12 14 14 13 15 15 14 16 15 12 11 13 16 10 6 11 12 10 10 11 12 11 11 11 10 9 9 9 9 8 9
14 14 15 12 9 10 11 10 7 7 8 9 10 6 5 6 3 5 5 5 7 8 13 16 12 14 20 18 15 13 12 13 15 14 20 23 21 16 13 11 10 15 19 19 14 9 12 16 18 20 20 22 19 16 18 16 10 9 12 16 16 15 16 18 19 14 10 10 12 15 10 7 10 11 11 12 12 13 11 11 11 10 10 9 9 10 10 10
13 13 14 12 10 8 8 6 7 6 6 3 2 1 3 3 2 4 4 5 6 6 13 13 10 14 18 17 17 14 11 11 13 16 18 22 23 17 15 14 11 14 15 12 10 8 13 18 19 21 21 19 16 13 17 19 12 8 13 17 16 15 17 17 18 13 9 10 13 16 14 8 8 10 13 14 14 14 12 11 11 10 11 11 10 10 11 11
13 13 13 12 9 8 10 12 11 9 6 1 2 1 1 2 4 4 4 4 3 5 9 10 9 11 15 18 21 16 11 13 14 14 16 22 23 16 16 18 16 17 18 13 11 11 13 17 20 21 19 14 14 14 17 20 14 9 15 15 14 14 17 15 14 13 11 10 11 16 16 9 7 10 13 15 15 14 14 13 13 12 13 12 11 11 11 11
12 12 12 11 10 11 13 14 12 11 9 3 2 3 3 4 3 3 5 4 2 3 6 8 8 10 13 17 21 19 15 13 14 13 16 20 23 17 13 17 19 19 20 17 13 12 13 15 17 17 14 12 15 16 17 19 16 11 16 16 11 10 14 15 13 11 11 11 10 15 17 10 6 9 11 13 14 14 13 12 12 12 12 11 11 11 10 10
12 12 12 10 11 12 12 14 15 14 12 8 5 5 5 5 3 4 7 4 1 2 5 8 9 13 17 17 18 20 20 15 13 16 16 17 21 19 13 15 17 16 17 17 16 14 13 12 14 14 13 13 15 16 16 19 19 14 14 16 12 8 10 12 11 10 10 9 11 16 19 14 7 8 11 11 12 14 13 11 11 12 11 11 10 9 9 9
12 11 11 11 12 11 9 9 9 9 11 8 6 7 6 4 4 6 6 2 0 3 2 8 13 15 19 19 16 18 22 17 15 19 16 15 18 18 14 13 13 12 14 13 14 15 13 12 12 13 15 14 14 15 15 18 21 14 11 13 11 8 9 10 10 11 10 10 12 16 21 18 9 7 10 10 12 14 13 12 14 13 12 10 9 9 9 8
12 12 12 13 14 13 12 8 1 2 5 4 5 6 4 4 6 7 5 3 2 4 2 7 14 17 20 20 17 19 20 16 16 20 17 16 16 15 15 13 11 13 14 12 14 15 13 13 15 14 16 16 15 14 13 15 18 13 10 12 11 9 8 9 10 11 10 10 12 15 19 16 8 9 12 12 11 12 11 11 13 13 12 11 9 9 9 8
14 14 13 14 15 16 17 14 5 3 4 2 6 6 4 5 7 8 8 4 2 2 2 4 6 13 20 18 17 21 19 16 18 19 18 19 16 15 18 18 17 15 13 13 14 13 11 14 18 16 15 16 16 13 12 13 15 14 13 12 11 10 9 10 11 10 10 10 13 17 18 10 7 10 13 15 13 11 13 12 11 12 12 12 10 9 9 8
14 14 15 16 18 18 19 16 12 10 8 6 6 5 7 8 7 8 9 3 2 2 4 6 10 12 20 18 16 20 17 15 19 19 18 19 15 14 17 20 23 17 11 13 12 12 13 12 16 17 13 16 19 16 14 14 14 14 13 13 11 9 9 9 9 9 11 9 10 15 13 7 7 10 12 16 16 14 14 12 11 12 11 11 10 10 9 9
14 15 17 18 19 20 19 18 15 13 10 8 5 6 10 10 7 7 4 1 3 2 6 6 9 11 17 17 18 23 17 13 19 19 17 18 15 15 16 17 22 19 12 12 9 12 15 11 15 18 14 18 21 17 16 16 13 12 12 12 12 10 9 7 5 5 8 7 6 8 4 3 5 11 12 14 15 14 13 12 12 11 10 11 10 9 9 9
14 15 16 17 18 18 18 18 16 15 11 7 6 8 9 9 6 3 1 1 1 2 5 7 8 8 12 14 16 23 20 13 18 17 14 18 17 17 18 15 20 21 15 12 8 10 13 11 17 19 15 19 19 16 19 16 11 10 12 13 13 13 11 8 4 1 4 8 7 6 6 5 5 8 11 13 15 14 13 12 11 11 11 10 10 9 9 8
13 13 13 15 16 14 16 18 18 17 11 6 8 9 9 10 7 2 3 3 1 2 4 6 7 8 11 13 14 22 21 14 17 15 13 17 16 18 21 17 20 23 17 13 9 9 11 10 18 21 17 19 18 17 19 17 13 10 11 12 12 13 12 8 6 4 6 9 7 8 9 9 7 6 9 14 15 13 12 12 11 11 11 10 10 9 9 9
12 11 12 15 15 13 15 18 19 16 8 6 11 12 10 8 6 2 4 3 1 2 5 5 5 8 10 13 14 21 21 13 15 15 13 14 13 18 21 17 19 23 21 17 10 9 12 8 14 20 18 18 19 16 15 17 19 15 11 12 11 12 12 9 8 8 9 10 7 10 12 10 9 8 12 16 16 14 13 13 12 11 10 10 10 10 9 9
11 8 7 9 12 14 16 19 18 12 7 8 10 10 9 8 7 4 3 3 1 3 6 4 4 6 7 10 14 19 19 14 15 15 13 11 11 18 21 15 18 22 21 18 10 8 10 7 10 17 19 17 16 13 12 15 18 16 13 13 11 10 11 10 8 7 9 10 8 10 12 10 8 12 17 19 18 18 15 14 12 11 11 9 9 9 8 8
9 5 2 5 11 16 19 19 14 8 8 10 10 8 8 9 10 7 3 2 4 4 4 4 5 6 6 9 11 15 16 14 15 14 12 12 12 17 20 16 15 20 21 18 12 8 8 7 8 14 18 15 11 12 15 15 15 15 14 14 11 9 9 10 9 8 9 10 8 8 10 5 1 7 17 20 18 18 16 14 12 11 11 10 9 9 8 8
6 4 2 7 14 19 19 13 9 8 8 10 10 10 9 9 9 7 3 2 5 5 4 6 8 7 7 9 8 12 14 12 15 13 9 13 13 11 17 18 16 19 19 16 13 9 7 7 8 11 14 14 13 16 18 17 17 14 11 12 13 11 10 10 10 10 10 9 8 8 7 4 4 1 10 16 16 16 16 14 12 12 12 11 10 9 8 7
5 3 3 10 19 22 16 8 7 7 8 9 9 9 10 9 9 7 5 4 7 6 5 7 9 9 8 7 7 9 12 8 13 13 9 14 14 11 16 20 19 19 16 12 13 11 7 6 9 11 12 14 16 19 20 20 20 16 12 13 14 13 11 10 10 10 9 10 10 9 7 5 4 1 8 14 14 16 15 14 14 12 11 11 10 9 9 8
4 2 3 11 21 21 11 7 8 8 8 9 10 11 11 10 9 8 6 5 6 6 6 7 8 8 6 6 7 9 11 10 14 14 11 14 14 11 19 21 19 20 16 11 13 11 6 6 9 11 11 13 16 19 18 17 16 15 14 14 14 13 13 11 9 9 8 9 10 8 7 4 3 1 10 13 14 15 15 14 15 13 11 11 10 9 9 8
4 2 2 9 19 17 9 7 9 9 9 10 11 11 10 8 8 8 6 5 5 6 6 8 8 7 6 8 8 7 11 10 11 10 8 13 9 7 19 24 19 17 14 10 11 9 5 7 9 9 10 10 11 14 14 13 13 12 13 15 16 17 18 14 10 8 7 9 10 6 5 5 2 4 12 15 15 16 15 13 15 14 12 10 9 9 9 8
3 1 3 7 13 12 8 7 6 6 9 11 10 9 9 8 5 5 5 6 7 6 7 8 9 8 8 10 10 7 12 11 8 7 6 8 6 5 16 22 18 17 15 11 11 10 7 8 8 9 11 12 10 10 12 12 11 10 14 18 19 20 20 15 9 7 7 10 12 7 5 8 7 8 13 16 16 17 15 14 13 13 12 11 9 9 8 8
3 1 2 5 7 7 8 8 6 6 7 9 9 9 11 9 4 2 4 6 8 9 9 10 10 11 10 11 12 7 11 11 8 7 5 4 5 7 13 17 18 16 12 7 8 10 7 5 4 3 7 11 12 13 14 14 12 13 17 21 20 20 20 16 11 8 8 9 10 7 13 15 12 12 14 15 16 16 15 14 14 13 12 11 9 9 8 8
3 1 3 5 6 6 7 8 8 7 6 7 6 7 10 8 2 0 3 5 7 9 10 10 12 12 10 9 10 7 8 13 11 10 11 8 7 7 10 17 15 8 9 8 9 9 6 4 4 1 1 5 11 14 17 18 17 17 17 18 18 18 18 16 12 7 5 8 5 10 20 20 15 15 16 14 14 15 14 13 13 12 12 11 10 10 9 9
3 2 2 3 3 5 8 9 10 9 7 8 5 3 6 6 4 3 4 6 9 10 9 9 12 15 14 11 10 7 7 14 12 11 12 10 8 7 10 18 13 6 8 13 11 7 5 5 6 6 4 2 5 10 15 18 18 16 15 16 16 15 13 12 10 3 3 4 6 12 18 20 16 15 15 13 13 14 13 13 12 12 13 12 11 11 10 10
3 3 3 4 3 4 7 8 9 9 9 8 5 4 5 7 9 8 5 5 8 11 12 10 11 14 15 14 10 6 8 10 10 9 11 9 8 8 10 14 12 8 12 14 10 7 4 3 7 10 8 4 4 8 11 14 15 15 14 13 11 12 12 8 4 5 5 7 13 16 18 17 14 14 14 12 11 13 13 12 12 13 13 13 12 11 10 10
3 3 4 4 4 5 5 5 7 8 7 7 6 5 7 9 9 7 6 8 9 10 12 13 13 12 13 15 13 9 8 8 12 8 9 9 8 7 8 10 12 13 14 12 9 6 3 3 7 10 8 6 6 8 8 8 10 11 10 7 6 9 11 8 7 10 12 13 16 20 19 14 10 12 15 13 11 13 13 13 13 13 12 13 12 11 10 10
5 7 6 5 5 4 4 5 6 6 6 7 6 5 6 8 8 6 6 9 10 9 10 12 11 10 10 12 10 5 4 7 15 9 5 8 8 8 9 10 13 15 14 11 8 5 4 5 7 8 8 6 8 11 12 13 13 12 11 8 4 6 9 10 7 6 10 15 17 16 13 9 9 13 15 13 13 13 13 13 12 11 11 12 11 11 10 10
6 8 6 5 5 4 4 6 7 6 4 4 4 5 6 6 5 6 5 5 5 6 6 7 8 7 5 4 5 2 4 5 14 12 8 9 9 9 10 13 16 14 11 10 9 7 6 5 6 8 8 8 10 13 15 16 12 10 9 5 3 5 10 12 10 9 8 11 10 6 8 11 14 15 15 15 14 13 12 11 11 11 11 11 11 11 10 9
Wind_Direction
335 331 330 330 327 328 330 329 328 324 321 320 317 315 310 311 314 312 311 308 311 313 313 315 313 315 313 313 311 312 321 311 301 285 258 250 242 242 241 244 248 211 180 181 197 192 192 202 203 201 209 206 214 228 196 201 227 210 226 233 229 232 225 215 188 197 84 93 102 120 180 247 159 167 175 171 172 133 147 149 115 103 95 89 100 124 135 143
332 330 330 328 326 326 327 327 327 324 321 319 315 314 310 307 311 312 310 308 310 311 311 313 313 312 312 312 309 315 320 303 290 277 265 256 244 240 239 243 247 197 185 203 204 196 194 197 197 195 208 207 202 212 185 190 216 213 225 226 227 233 216 237 311 55 62 84 92 118 175 272 159 156 168 183 167 148 166 155 143 115 101 102 112 131 136 140
329 328 329 327 327 326 326 324 320 319 317 313 311 310 308 307 309 307 307 308 311 313 310 310 313 311 312 311 309 318 315 301 282 269 265 243 235 240 241 238 233 200 196 214 207 202 207 202 196 197 210 215 201 197 184 185 200 217 229 229 228 239 231 171 340 11 57 47 74 111 189 193 156 156 183 189 169 177 179 159 166 139 123 130 132 139 136 141
327 324 324 324 326 325 325 321 315 312 310 307 305 302 305 306 304 305 304 304 307 313 309 309 312 307 311 310 309 322 307 292 273 251 165 155 200 223 228 227 222 213 211 224 220 212 220 214 198 204 218 220 207 199 199 186 187 214 223 235 231 236 256 185 198 219 96 346 343 96 210 177 157 180 200 192 177 190 176 169 175 140 138 147 143 145 142 147
323 319 319 321 322 323 322 319 316 313 309 307 304 300 302 302 303 305 304 304 305 308 307 308 310 306 309 308 308 316 294 278 287 114 121 131 131 152 198 214 212 210 214 226 229 220 225 224 205 209 223 226 213 201 212 199 194 224 219 239 253 249 257 189 176 186 130 227 250 230 219 148 161 186 206 199 184 197 159 157 137 117 134 146 146 151 148 147
321 318 315 316 318 318 317 316 317 315 310 305 303 302 300 299 301 302 302 304 303 307 309 308 309 308 308 305 300 293 264 258 85 106 128 124 90 62 98 196 205 203 213 223 225 220 220 221 208 210 219 228 222 206 216 204 198 231 218 229 254 260 245 195 160 160 178 220 221 257 35 149 209 185 203 202 99 77 107 118 104 108 137 152 154 151 145 143
320 318 313 314 313 312 313 312 313 312 309 304 300 300 298 298 297 299 302 301 302 306 308 309 309 308 310 308 291 265 242 263 246 123 191 195 354 313 336 85 194 197 211 219 217 215 214 215 211 214 216 224 229 214 215 208 200 227 232 218 231 239 236 213 174 171 197 226 229 269 193 203 218 174 183 131 88 90 95 105 107 123 152 158 152 141 139 140
317 316 311 311 310 310 310 308 308 306 307 305 300 299 299 299 296 297 300 301 304 302 302 308 310 307 309 308 285 246 228 253 248 181 258 242 262 297 286 188 189 194 207 213 213 211 211 215 212 215 220 222 228 219 214 215 205 219 239 231 214 222 229 222 214 202 207 222 224 235 210 200 214 178 173 143 113 120 113 107 109 133 155 150 139 135 139 137
313 312 309 308 309 308 307 305 306 303 302 303 302 300 298 298 296 297 299 301 303 300 300 303 308 307 299 292 275 255 234 242 243 236 278 258 239 241 218 194 189 195 205 211 214 213 212 215 214 216 227 227 228 225 216 218 211 209 228 239 223 214 219 218 216 213 212 213 210 211 203 182 167 188 165 135 127 132 125 109 114 158 161 144 135 137 138 135
309 309 307 307 307 304 303 302 303 301 299 299 298 298 297 296 293 294 296 298 300 300 300 299 305 304 289 272 252 253 239 232 243 245 255 255 232 215 213 206 194 198 206 210 213 215 215 217 216 219 234 237 236 231 217 218 218 201 218 231 231 224 210 208 211 207 206 207 206 207 201 167 166 204 177 134 144 148 133 123 150 176 155 139 136 137 137 136
307 306 305 307 306 303 301 299 299 299 298 296 295 296 298 296 291 294 295 293 295 295 296 296 302 294 279 266 245 235 192 219 237 232 235 241 229 218 218 214 201 204 209 209 213 214 216 220 219 221 230 241 246 238 220 219 225 207 219 226 224 229 215 202 208 202 202 205 199 210 203 159 174 214 181 140 154 159 139 140 171 172 144 139 136 134 134 130
305 304 305 308 307 303 299 298 297 297 298 296 294 295 296 295 290 292 292 292 295 294 295 292 293 285 272 265 244 236 242 254 235 228 240 231 226 220 220 219 209 212 213 210 213 213 216 220 221 226 222 224 236 237 224 215 224 227 225 229 215 219 221 206 207 200 203 202 186 206 209 166 188 197 139 136 155 157 146 154 172 159 139 140 134 131 127 120
305 304 305 307 306 303 299 297 297 298 300 300 298 296 295 293 289 288 286 283 285 288 291 286 282 272 265 263 246 243 252 261 258 261 260 241 234 222 217 223 221 220 219 216 215 211 217 220 224 234 227 224 224 231 245 207 215 227 218 232 215 207 215 205 203 199 202 197 178 198 207 177 191 166 125 138 158 157 154 163 169 151 138 138 134 129 122 122
303 301 303 305 302 300 299 298 299 302 302 301 300 295 290 288 288 287 283 277 277 282 283 280 273 261 255 260 259 251 250 257 258 254 248 238 232 222 210 218 223 221 220 221 219 211 215 219 227 242 233 235 229 185 219 203 203 220 210 225 224 211 206 194 198 197 196 188 175 199 218 187 177 151 143 157 166 172 164 165 168 150 144 144 136 128 126 131
301 300 301 302 299 297 299 299 302 304 304 304 300 295 289 287 287 285 280 275 272 271 271 268 256 253 258 261 262 256 243 244 248 241 235 228 223 221 211 210 214 214 214 219 222 214 212 213 218 238 224 229 238 210 208 208 198 211 210 213 219 226 200 182 191 194 192 182 177 206 225 173 158 149 160 166 174 187 166 160 161 146 146 142 135 133 129 126
300 298 297 297 297 297 298 300 303 304 306 304 299 296 291 286 287 283 275 266 262 258 253 250 232 231 263 271 255 237 222 226 233 232 228 223 219 221 214 204 201 204 204 209 217 211 204 205 209 230 223 217 232 223 209 208 199 204 215 211 205 223 206 175 184 189 193 181 180 212 218 126 144 150 161 168 176 187 165 158 159 149 147 140 139 138 129 126
301 298 297 296 297 296 298 302 304 304 305 302 298 296 293 288 282 275 268 252 248 241 233 247 242 225 254 276 267 229 213 214 224 224 218 217 217 218 209 195 190 192 191 195 205 198 189 199 208 220 226 215 214 215 210 204 199 198 210 215 202 216 209 170 175 184 195 186 182 214 212 114 143 153 160 165 170 181 168 160 162 158 155 151 153 141 135 138
305 301 298 297 297 297 299 302 302 303 301 299 298 293 290 291 274 260 246 217 214 219 228 249 254 234 241 247 243 233 217 211 211 211 207 204 207 212 201 189 187 183 183 187 194 192 185 195 205 207 216 215 206 210 215 202 200 196 199 212 202 209 204 171 174 183 195 192 187 208 195 131 150 153 158 162 171 183 166 160 167 163 163 165 161 148 144 143
308 305 301 298 296 296 300 302 303 304 302 300 302 295 283 277 255 236 206 188 189 194 212 208 198 219 275 224 220 222 209 198 196 197 199 192 193 204 195 188 188 182 182 183 186 190 186 189 203 210 209 208 205 208 217 211 204 198 196 210 201 200 199 176 178 181 188 192 191 202 180 136 150 149 149 153 168 178 156 163 171 160 167 173 162 149 142 134
309 308 305 299 294 297 302 302 301 301 301 301 306 299 267 230 228 222 196 193 206 216 233 205 185 219 268 259 201 208 181 174 193 199 194 184 184 193 191 188 189 187 191 187 182 185 187 194 202 209 208 206 206 208 218 221 213 199 196 211 206 198 201 183 177 177 184 191 192 196 172 138 141 135 137 138 146 160 158 171 173 164 173 172 159 145 129 120
309 306 306 302 297 298 301 301 299 295 297 296 294 286 258 251 272 246 196 211 223 229 248 245 206 223 253 269 188 203 218 200 203 205 191 180 182 188 186 187 188 190 197 191 182 182 192 207 207 207 210 207 206 208 216 225 228 211 197 205 207 201 200 176 166 172 180 194 196 185 158 139 140 126 133 141 145 155 163 174 176 170 167 156 144 131 117 109
307 302 303 303 300 301 303 301 297 294 295 288 272 256 262 291 322 329 279 250 238 229 238 249 240 238 251 257 249 237 251 213 199 201 186 178 185 188 181 185 193 190 193 192 184 184 198 213 208 204 209 209 206 208 213 221 229 222 201 203 204 197 187 152 153 172 180 199 197 171 149 138 139 127 133 141 140 139 138 147 160 162 151 134 122 111 108 106
308 304 299 298 301 303 301 297 292 289 284 269 257 249 256 279 301 299 281 275 266 240 227 232 238 239 239 245 237 222 239 219 200 191 180 181 189 193 185 186 196 191 189 196 191 190 201 210 207 202 207 210 204 204 210 214 216 216 207 203 198 193 189 159 161 180 187 203 189 157 150 144 136 134 138 135 131 129 119 109 104 121 127 118 106 91 94 105
308 304 296 295 299 299 301 300 290 276 263 249 248 251 258 273 289 297 288 271 273 256 234 221 221 231 230 231 224 215 227 227 215 188 176 187 191 192 196 189 194 196 194 198 196 200 207 201 202 202 206 209 202 201 207 206 203 214 214 208 204 195 183 155 164 180 189 202 187 164 162 162 159 159 152 141 134 129 123 114 105 104 110 110 106 95 89 90
304 300 293 292 293 301 303 295 279 258 246 242 247 250 251 256 274 300 301 271 258 247 232 217 210 223 223 221 215 210 218 225 232 199 174 192 195 187 198 193 198 202 194 198 198 204 210 196 196 201 202 206 204 201 203 198 197 212 217 221 218 194 173 160 171 180 185 198 194 184 182 178 181 177 163 158 150 138 131 124 119 115 116 116 111 109 102 87
303 297 292 290 291 307 299 286 285 262 248 242 246 244 214 220 273 311 288 261 259 228 201 194 191 201 204 207 199 197 216 218 230 213 175 190 202 192 196 191 202 208 194 196 201 206 211 193 191 200 199 202 206 202 197 196 205 207 205 223 223 193 180 177 175 180 188 194 191 191 192 176 179 181 169 167 161 148 134 121 122 122 116 105 93 95 98 90
300 293 296 294 288 298 282 296 338 301 264 229 212 123 142 195 318 309 267 255 255 195 171 174 171 174 183 187 179 186 210 190 206 218 185 188 202 201 206 193 194 211 194 190 205 204 205 193 189 200 199 199 205 200 192 196 215 205 182 211 227 201 187 182 178 188 197 189 184 193 204 192 177 181 171 169 165 153 141 127 122 115 104 97 86 82 82 83
295 292 299 296 285 281 273 292 307 271 260 35 88 121 163 274 297 261 245 253 237 154 158 166 151 164 181 178 176 194 214 173 180 208 189 189 201 204 211 199 194 207 195 192 206 190 196 200 191 194 194 194 202 199 191 197 216 210 173 196 235 212 185 179 190 201 195 191 189 194 208 207 174 177 170 170 172 159 146 133 118 102 97 97 93 86 81 78
292 289 290 293 291 278 264 269 268 254 264 275 221 230 238 272 292 241 238 245 214 157 165 159 149 177 187 176 181 201 214 188 176 184 180 190 204 212 218 202 198 207 197 196 208 187 192 208 189 183 195 197 200 203 194 195 216 212 172 183 228 218 182 182 201 206 196 205 201 191 203 208 167 170 176 176 177 164 145 130 117 106 100 95 91 88 84 80
289 282 281 287 283 271 257 249 247 245 250 248 233 234 240 253 245 220 234 236 202 193 164 156 168 184 182 176 185 200 209 204 176 169 177 188 201 213 223 207 202 210 198 195 212 201 186 198 185 184 209 204 198 206 195 195 216 214 175 180 205 206 190 197 206 208 203 209 207 196 201 209 184 170 188 185 173 163 149 137 128 117 105 97 93 89 84 80
286 277 274 270 262 267 263 248 242 228 226 228 232 236 240 240 225 226 225 176 189 284 180 171 181 183 183 181 183 194 206 207 175 167 178 183 191 203 209 203 200 207 198 191 212 207 178 185 194 195 212 207 197 202 190 195 214 212 181 186 193 188 199 209 206 212 213 204 207 203 201 209 205 180 186 171 155 156 155 152 143 127 112 104 96 88 83 77
280 274 271 263 257 259 252 249 335 143 192 197 218 228 229 223 227 231 213 158 200 277 278 197 188 180 185 189 184 186 201 203 175 171 179 181 186 197 199 195 188 196 195 185 202 204 182 188 197 194 203 204 200 196 184 196 208 198 187 195 192 181 192 203 200 210 218 207 207 201 197 206 198 162 159 142 139 146 141 144 140 127 117 108 97 88 84 78
279 277 273 262 253 247 241 246 260 192 173 212 234 227 221 231 233 226 225 217 194 268 312 298 244 195 185 192 186 183 199 199 175 174 181 183 186 192 200 200 193 196 196 186 193 196 186 190 192 191 195 199 206 199 180 194 201 190 191 198 194 184 185 196 195 202 212 206 209 202 193 190 149 136 132 119 115 114 113 118 121 117 112 106 100 95 90 85
283 278 273 262 251 243 238 238 235 217 212 234 237 218 220 237 243 229 227 207 116 254 270 313 297 226 191 194 186 179 198 196 175 177 181 184 188 189 198 199 194 198 198 189 192 189 187 187 188 191 186 189 206 206 187 192 194 193 202 203 202 197 188 194 195 202 204 195 208 205 189 167 135 119 109 110 107 103 104 108 110 109 109 108 104 102 97 89
288 276 268 259 250 242 233 226 221 211 212 225 225 216 221 228 236 235 234 104 93 240 257 275 280 235 195 197 188 182 198 193 179 187 184 184 192 189 194 195 192 198 198 190 191 190 193 191 186 191 184 187 204 203 189 194 192 192 209 210 207 203 184 187 209 217 203 187 198 197 145 76 118 114 114 121 117 114 112 113 117 115 112 111 104 100 96 87
288 276 262 249 241 232 218 212 206 200 203 215 217 220 225 229 248 276 308 325 354 232 264 269 262 235 196 195 186 185 196 194 185 192 186 187 193 189 192 192 191 198 200 193 187 186 195 189 178 184 187 190 203 202 189 196 195 189 207 211 208 209 195 188 204 199 190 192 189 168 107 91 129 127 135 138 125 125 128 124 127 121 115 113 104 101 96 89
282 275 263 247 236 219 204 197 190 192 203 217 219 225 231 232 248 272 165 199 241 212 268 266 234 218 195 192 188 183 186 187 189 194 188 188 191 190 193 192 191 198 204 202 192 187 199 187 170 179 187 184 195 209 199 198 204 196 202 206 202 210 212 201 194 179 193 201 190 174 154 148 165 159 155 152 138 138 143 136 133 127 120 113 106 105 97 91
279 275 268 250 229 201 189 182 178 185 198 217 228 236 244 244 247 222 169 176 181 220 263 269 225 215 196 189 188 181 178 179 189 193 191 189 188 189 192 191 189 195 201 203 200 196 204 192 166 178 190 178 180 208 208 198 209 212 201 205 206 206 206 201 198 196 197 200 194 186 179 179 191 173 163 165 152 145 148 142 138 131 123 114 107 103 95 90
275 271 262 233 203 178 170 171 175 186 203 214 225 235 246 263 271 257 180 170 206 242 265 270 228 234 221 206 195 179 174 178 187 192 193 190 184 186 191 193 188 190 196 199 199 200 203 195 170 180 189 177 171 201 208 189 205 217 205 206 221 217 206 200 201 202 201 202 198 194 194 199 197 170 168 170 156 150 152 146 141 131 123 117 107 102 93 87
265 257 216 169 170 161 159 168 180 195 211 220 229 234 237 251 254 244 214 223 242 245 264 262 238 254 268 250 220 183 173 180 188 194 194 183 176 183 189 190 188 190 191 191 193 200 197 185 175 178 184 181 176 199 206 190 195 211 203 198 207 212 209 208 205 204 210 207 194 194 197 188 144 164 167 163 155 154 152 142 135 128 120 113 105 103 96 90
254 246 191 169 165 155 155 171 194 202 212 226 233 235 240 253 253 230 183 251 265 245 254 271 269 273 277 272 245 187 177 184 188 191 190 183 180 185 188 186 188 188 186 187 190 194 189 173 175 183 185 189 188 192 200 200 197 202 207 205 205 203 202 206 206 204 212 213 197 194 189 136 45 26 162 155 152 150 145 138 130 124 118 110 105 104 99 94
253 249 161 165 164 159 165 187 202 205 219 229 231 234 235 244 256 238 192 220 256 244 247 260 263 269 265 275 272 204 182 179 187 188 186 187 187 182 183 186 188 184 182 189 187 182 190 184 183 190 189 189 187 188 200 206 198 196 211 218 209 203 204 206 205 201 209 220 209 193 170 119 41 20 151 150 148 140 137 139 132 122 117 112 110 106 100 95
239 225 165 173 173 173 187 206 198 209 225 225 227 234 233 228 237 236 220 237 255 247 258 260 256 264 253 249 262 217 186 180 184 184 183 183 183 181 180 183 188 183 182 194 183 171 190 200 191 193 189 186 185 185 197 209 202 195 208 219 212 204 208 215 215 201 206 224 219 196 164 130 18 102 141 141 141 135 134 138 133 124 118 113 111 107 101 96
254 239 148 178 184 189 210 214 198 208 219 222 228 234 236 237 240 242 241 255 256 252 268 267 259 264 247 246 262 224 202 198 167 159 187 178 168 196 184 178 184 184 180 193 181 163 185 201 192 191 181 179 188 185 187 205 213 201 199 211 215 207 205 217 225 209 212 222 215 204 163 137 83 123 135 134 136 132 130 133 129 123 119 114 110 107 105 101
280 271 108 169 188 199 226 235 231 233 222 220 228 235 238 234 229 251 266 261 258 263 270 265 266 273 262 265 277 229 203 206 164 154 208 170 137 215 189 174 184 188 176 185 184 169 189 198 187 197 191 178 183 188 182 190 206 204 195 201 212 212 204 208 216 201 205 219 213 199 141 127 120 118 125 131 134 129 127 127 122 119 119 117 115 113 108 104
285 248 122 162 189 212 239 250 264 267 239 222 220 230 239 228 196 227 268 264 265 260 257 267 275 277 266 259 268 236 180 185 191 179 173 141 148 195 187 179 189 181 151 152 185 177 188 199 172 225 224 192 185 189 186 185 195 204 200 196 204 211 203 201 216 209 197 218 220 167 133 134 138 133 128 131 132 128 128 128 122 119 119 118 120 117 111 107
269 238 165 168 188 212 229 236 238 241 247 240 220 219 232 227 180 48 239 242 260 253 250 260 257 260 268 248 247 251 173 169 191 180 157 162 178 173 185 192 186 150 125 162 197 190 183 190 159 94 295 206 193 188 184 187 194 200 201 196 199 209 208 203 205 202 209 225 208 138 136 141 148 146 139 136 134 131 131 130 125 123 123 122 122 120 115 111
252 270 227 211 214 211 209 216 222 226 239 239 222 214 225 213 201 229 231 233 253 250 240 245 242 243 255 241 226 245 197 168 176 183 168 168 169 158 186 192 175 135 166 182 192 194 181 179 172 149 106 109 182 185 187 193 194 192 195 198 200 205 211 209 197 194 284 230 154 139 141 140 143 147 139 135 135 131 128 127 125 124 124 124 123 120 116 110
267 282 267 260 262 233 214 213 212 213 227 232 224 222 221 218 219 220 225 238 252 246 229 230 244 238 234 229 215 231 225 172 153 178 181 162 155 163 181 181 168 172 188 183 181 182 161 158 174 159 134 117 159 178 190 195 191 184 183 189 201 204 202 204 173 106 93 113 124 131 128 123 131 140 131 126 126 124 122 122 124 125 124 124 123 121 118 112
296 314 310 287 265 246 229 222 211 206 214 219 225 226 217 229 235 219 223 238 237 236 224 225 246 246 228 219 206 212 233 171 137 161 178 150 148 178 185 173 168 182 189 182 175 172 148 168 176 155 134 135 158 165 164 154 148 150 151 149 174 190 176 148 105 101 105 106 113 120 116 109 119 126 122 120 119 119 121 122 123 123 123 124 123 122 119 112
293 289 301 303 283 254 219 210 208 207 208 202 214 237 224 229 238 224 238 248 236 229 221 221 243 254 236 218 193 203 253 152 142 154 166 154 169 197 200 176 167 181 188 172 162 175 176 173 172 158 144 142 157 161 147 124 111 105 99 93 114 145 132 116 103 108 124 126 124 122 122 127 132 126 122 122 122 121 121 121 121 121 122 124 123 121 117 108
308 284 283 284 286 277 228 207 198 203 213 184 189 243 251 239 226 217 230 246 240 239 226 229 263 263 213 148 94 3 310 138 143 151 160 178 190 192 195 184 172 177 180 164 163 176 167 164 181 174 157 151 158 154 142 135 129 113 96 62 34 103 108 98 78 61 93 133 140 131 131 138 139 133 127 126 125 122 120 119 119 120 122 121 120 119 115 104